Regional Weather Roundup
Issued by NWS

Home | Current Version | Previous Version | Text Only | Print | Product List | Glossary Off
Versions: 1 2 3 4 5 6 7 8 9 10 11 12 13 14 15 16 17 18 19 20 21 22 23 24 25 26 27 28 29 30 31 32 33 34 35 36 37 38 39 40 41 42 43 44 45 46 47 48 49 50

408
ASUS43 KLMK 250810
RWRKY
KENTUCKY REGIONAL WEATHER ROUNDUP
NATIONAL WEATHER SERVICE LOUISVILLE KY
300 AM EST SAT NOV 25 2017

NOTE "FAIR" INDICATES FEW OR NO CLOUDS BELOW 12,000 FEET
WITH NO SIGNIFICANT WEATHER AND/OR OBSTRUCTIONS TO VISIBILITY.

KYZ001>023-026-027-061>063-070>075-250900-
WESTERN AND SOUTH CENTRAL KENTUCKY

CITY           SKY/WX    TMP DP  RH WIND       PRES   REMARKS
PADUCAH        CLOUDY    53  32  44 SW10      29.83S
HENDERSON      CLOUDY    51  35  54 SW13      29.80R
OWENSBORO      CLOUDY    52  34  50 SW12      29.81S
HOPKINSVILLE   MOCLDY    52  28  39 SW13      29.85F
BOWLING GREEN  CLOUDY    49  30  48 SW6       29.87S
GLASGOW        PTCLDY    51  32  47 SW9G16    29.86F
$$

KYZ024-025-028>034-038-045-046-053-250900-
NORTH CENTRAL KENTUCKY

CITY           SKY/WX    TMP DP  RH WIND       PRES   REMARKS
LOUISVILLE/SDF CLOUDY    53  27  36 SW12      29.80R
LOUISVILLE/LOU MOCLDY    53  29  39 SW14G23   29.80R
FORT KNOX      CLOUDY    50  27  40 SW7       29.80R
$$

KYZ035>037-039>044-047>052-055>060-089>105-250900-
NORTHEAST KENTUCKY

CITY           SKY/WX    TMP DP  RH WIND       PRES   REMARKS
LEXINGTON      PTCLDY    51  34  52 SW16      29.81F
COVINGTON      CLOUDY    50  30  46 SW14G21   29.74R
FRANKFORT      PTCLDY    51  29  42 SW13G22   29.79R
$$

KYZ054-064>069-076>088-106>120-250900-
SOUTHEAST KENTUCKY

CITY           SKY/WX    TMP DP  RH WIND       PRES   REMARKS
JACKSON        CLEAR     49  35  58 SW6       29.84S
LONDON         CLEAR     42  35  76 SW3       29.88R
SOMERSET       PTCLDY    43  36  75 CALM      29.89S
MIDDLESBORO    CLEAR     35  34  99 CALM      29.92R
MONTICELLO     SUNNY     50  40  68 W15       29.90S
$$





USA.gov is the U.S. government's official web portal to all federal, state and local government web resources and services.